Retour au catalogue

FENGYUN 1C DEB

ActifSSO
NORAD 31736·DEBRIS·🇨🇳 China

Lancé May 10, 1999 depuis Taiyuan Satellite Launch Center

Loading…

Prochains Passages (prochaines 24 heures)

TLE

VieillissantSource: Space-Track

Époque: Sep 9, 2026, 05:42 UTC

1 31736U 99025CEK 26252.23772977  .00000134  00000-0  92559-4 0  9998
2 31736  98.6869 251.5647 0011722 184.8229 175.2834 14.14326776678883

Suivez FENGYUN 1C DEB en temps réel avec AllMySat

Download on the App Store